Карточка аэропорта URWA

Внимание!
Информация на этой странице в стадии наполнения.
Если вы не увидели какой-то информации, или заметили неточность - пожалуйста сообщите нам!
Спасибо!
Команда RU-STAFF
Название аэропортаАстрахань
Название аэропорта (англ.)Astrakhan
Превышение-65 ft. (-19.8 m.)
Координаты46°16.998', 48°0.38399999999996'
Высота перехода3000 ft
Эшелон переходаFL50
Коды ответчика1010-1017
Зона ОрВДРостов-на-Дону РПИ (URRV)
Данные METARURWA 271130Z 01003MPS 9999 OVC010 M02/M04 Q1016 R09/810255 NOSIG RMK QFE764/1019
Проноз погоды (TAF)URWA 181700Z 1818/1906 31003G09MPS 3000 HZ BKN016 BECMG 1820/1822 2000 -SHRA BR BKN007 SCT020CB
NOTAMshow/hide NOTAM
AWOS   TABLE

Информация о ВПП

ВПП Длина ВПП (м.) Покрытие Курс ВПП Частота ILS
093200Асфальтобетон89110.3
273200Асфальтобетон269110.5
111950Трава113 
291950Трава293 

Диспетчерские позиции

Позывной Наименование органа УВД Частота
URWA_APPАстрахань-Подход126.0
URWA_R_APPАстрахань-Круг120.6
URWA_TWRАстрахань-Вышка118.6



Спутниковое изображение